Regional Weather Roundup
Issued by NWS

Home | Current Version | Previous Version | Text Only | Print | Product List | Glossary Off
Versions: 1 2 3 4 5 6 7 8 9 10 11 12 13 14 15 16 17 18 19 20 21 22 23 24 25 26 27 28 29 30 31 32 33 34 35 36 37 38 39 40 41 42 43 44 45 46 47 48 49 50

000
ASUS44 KMEG 291710
RWRTN
TENNESSEE HOURLY STATE WEATHER ROUNDUP
NATIONAL WEATHER SERVICE MEMPHIS TN
1200 PM CDT MON AUG 29 2016

TNZ002-004-019-021-049-052-054-088>092-291800-
WEST TENNESSEE

CITY           SKY/WX    TMP DP  RH WIND       PRES   REMARKS
MEMPHIS INTL   MOSUNNY   94  73  50 NE7       30.12S HX 103
NWS MEMPHIS      N/A     90 N/A N/A MISG        N/A
JACKSON        SUNNY     88  76  67 SE5       30.14S HX  99
DYERSBURG      SUNNY     88  73  62 MISG      30.14R HX  96
UNION CITY     SUNNY     88  73  62 NE6       30.14S HX  96
PARIS          SUNNY     86  73  66 CALM      30.17S HX  93
LEXINGTON      SUNNY     88  72  58 E5        30.14F HX  94
$$

TNZ008-025-027-028-033-062-065-066-291800-
NORTH MIDDLE TENNESSEE

CITY           SKY/WX    TMP DP  RH WIND       PRES   REMARKS
NASHVILLE      MOSUNNY   87  70  56 VRB6      30.18S HX  92
CLARKSVILLE    SUNNY     86  70  58 W3        30.17F HX  90
COOKEVILLE     SUNNY     88  70  55 CALM      30.18F HX  92
CROSSVILLE     SUNNY     84  66  54 N6        30.24F
$$

TNZ061-075-076-078-094-096-097-291800-
SOUTH MIDDLE TENNESSEE

CITY           SKY/WX    TMP DP  RH WIND       PRES   REMARKS
FAYETTEVILLE   SUNNY     86  72  62 SE6       30.17F HX  92
TULLAHOMA      PTSUNNY   88  66  48 VRB3      30.19F HX  90
WINCHESTER     SUNNY     88  70  55 E3        30.18S HX  92
MCMINNVILLE    MOSUNNY   88  72  58 CALM      30.19F HX  94
COLUMBIA       SUNNY     88  75  66 CALM      30.15S HX  97
SHELBYVILLE    MOSUNNY   90  73  58 CALM      30.18F HX  98
$$

TNZ017-018-042-046-047-291800-
NORTHEAST TENNESSEE

CITY           SKY/WX    TMP DP  RH WIND       PRES   REMARKS
TRI CITIES     MOSUNNY   86  66  51 VRB5      30.22F
ELIZABETHTON   SUNNY     86  64  48 W3        30.21F
$$

TNZ012-013-036-069-073-074-291800-
CENTRAL EAST TENNESSEE

CITY           SKY/WX    TMP DP  RH WIND       PRES   REMARKS
KNOXVILLE      MOSUNNY   87  61  41 NE7       30.18F
GATLINBURG     SUNNY     84  63  48 VRB5      30.18F
MORRISTOWN     SUNNY     86  63  45 VRB3      30.20F
$$

TNZ083-085-099-291800-
SOUTHEAST TENNESSEE

CITY           SKY/WX    TMP DP  RH WIND       PRES   REMARKS
CHATTANOOGA    MOSUNNY   87  65  47 CALM      30.17F
$$

SKY/WX REPORTED AS FAIR MEANS FEW OR NO CLOUDS BELOW
12 THOUSAND FEET.





USA.gov is the U.S. government's official web portal to all federal, state and local government web resources and services.